Accueil
METAR-TAF:

METAR-TAF

Aéroports :

Milford Municipal Airport (Ben and Judy Briscoe Field)

Milford, Utah, États-Unis

latitude: 38-25-21N, longitude: 113-00-35W, altitude: 1536 m

Observation

Le bulletin a été fait il y a 14 minutes, à 01:52 UTC
Vent 6 kt de nord/nord-ouest
Température 0°C
Humidité 80%
Pression 1027 hPa
Visibilité: 16.1 km
Ciel clair

METAR: KMLF 170152Z AUTO 34006KT 10SM CLR 00/M03 A3034 RMK AO2 WSHFT 0040 SLP299 T00001033

Heure: 19:06 (02:06 UTC)


TAF: absent

Observations et prévisions météorologiques de plus de 4000 aéroports (messages METAR et TAF).

Les stations disponibles sont représentées par des disques jaunes et rouges sur la carte.

Passer la souris dessus pour voir le nom de la station.

Cliquer dessus pour voir les observations et prévisions météorologiques.

Pour changer de carte: cliquez sur les boutons verts avec une croix noire pour zoomer, sur le bouton vert avec un tiret pour effectuer un zoom arrière, ou sur les flèches vertes pour les cartes adjacentes.


METAR-TAF: